Florala, AL

8:54 PM CDT on May 27, 2017 (GMT -0500)
Florala

Weather History for K0J4 - August, 2013

Change the Weather History Date:

Thursday, August 8, 2013

  Actual Average (KCEW) Record (KCEW)
Temperature  
Mean Temperature 82 °F -  
Max Temperature 91 °F 92 °F 99 °F (2007)
Min Temperature 73 °F 70 °F 64 °F (2002)
Cooling Degree Days 17    
Growing Degree Days 32 (Base 50)    
Moisture  
Dew Point 74 °F    
Average Humidity 83    
Maximum Humidity 97    
Minimum Humidity 59    
Precipitation  
Precipitation 0.00 in - - ()
Sea Level Pressure  
Sea Level Pressure 30.00 in    
Wind  
Wind Speed 3 mph (East)    
Max Wind Speed 14 mph    
Max Gust Speed -    
Visibility 9 miles    
Events Rain , Thunderstorm    
Averages and records for this station are not official NWS values.
T = Trace of Precipitation, MM = Missing Value Source: NWS Daily Summary

Daily Weather History Graph

Daily Weather History Graph

Search for Another Location

Airport or City:

Trip Planner

Search our weather history database for the weather conditions in past years. The results will help you decide how hot, cold, wet, or windy it might be!

Date:

Astronomy

Aug. 08, 2013 Rise Set
Actual Time 6:06 AM CDT 7:34 PM CDT
Civil Twilight 5:41 AM CDT 8:00 PM CDT
Nautical Twilight 5:10 AM CDT 8:30 PM CDT
Astronomical Twilight 4:37 AM CDT 9:03 PM CDT
Moon 7:42 AM CDT (8/8) 8:25 PM CDT (8/8)
Length of Visible Light 14h 18m
Length of Day
13h 27m
Waxing Crescent, 3% of the Moon is Illuminated
Aug 8
Waxing Crescent
Aug 14
First Quarter
Aug 20
Full
Aug 28
Last Quarter
Sep 5
New

Hourly Weather History & Observations

Time (CDT) Temp. Heat Index Dew Point Humidity Pressure Visibility Wind Dir Wind Speed Gust Speed Precip Events Conditions
12:58 AM 77.0 °F - 73.9 °F 90% 29.96 in 10.0 mi South 4.6 mph - N/A   Clear
1:58 AM 75.9 °F - 73.0 °F 91% 29.97 in 10.0 mi Calm Calm - N/A   Clear
2:58 AM 75.0 °F - 73.0 °F 94% 29.96 in 9.0 mi Calm Calm - N/A   Clear
3:58 AM 75.0 °F - 73.0 °F 94% 29.96 in 9.0 mi Calm Calm - N/A   Clear
4:58 AM 73.9 °F - 72.0 °F 93% 29.96 in 7.0 mi Calm Calm - N/A   Clear
5:58 AM 73.9 °F - 72.0 °F 93% 29.98 in 5.0 mi Calm Calm - N/A   Clear
6:58 AM 75.0 °F - 73.9 °F 96% 30.00 in 4.0 mi Calm Calm - N/A   Clear
7:46 AM 77.0 °F - 75.2 °F 94% 30.02 in 5.0 mi NE 3.5 mph - N/A   Partly Cloudy
7:58 AM 78.1 °F - 75.0 °F 90% 30.01 in 6.0 mi ENE 3.5 mph - N/A   Scattered Clouds
8:04 AM 78.8 °F - 75.2 °F 89% 30.02 in 6.0 mi Calm Calm - N/A   Mostly Cloudy
8:41 AM 80.6 °F 86.2 °F 75.2 °F 84% 30.01 in 9.0 mi NE 4.6 mph - N/A   Mostly Cloudy
8:53 AM 82.4 °F 89.5 °F 75.2 °F 79% 30.01 in 10.0 mi ESE 3.5 mph - N/A   Scattered Clouds
8:58 AM 81.0 °F 87.3 °F 75.9 °F 85% 30.00 in 10.0 mi Variable 3.5 mph - N/A   Partly Cloudy
9:56 AM 84.2 °F 94.1 °F 77.0 °F 79% 30.02 in 10.0 mi ENE 3.5 mph - N/A   Mostly Cloudy
9:58 AM 84.9 °F 95.3 °F 77.0 °F 77% 30.01 in 10.0 mi ENE 6.9 mph - N/A   Mostly Cloudy
10:11 AM 84.2 °F 92.3 °F 75.2 °F 74% 30.03 in 10.0 mi Calm Calm - N/A   Scattered Clouds
10:16 AM 86.0 °F 95.1 °F 75.2 °F 70% 30.03 in 10.0 mi East 4.6 mph - N/A   Mostly Cloudy
10:51 AM 87.8 °F 97.6 °F 75.2 °F 66% 30.03 in 10.0 mi Calm Calm - N/A   Scattered Clouds
10:58 AM 88.0 °F 98.5 °F 75.9 °F 67% 30.02 in 10.0 mi Calm Calm - N/A   Partly Cloudy
11:58 AM 90.0 °F 99.0 °F 73.9 °F 59% 30.01 in 10.0 mi Calm Calm - N/A   Scattered Clouds
12:58 PM 91.0 °F 101.6 °F 75.0 °F 59% 29.98 in 10.0 mi NE 6.9 mph - N/A   Scattered Clouds
1:58 PM 91.0 °F 101.6 °F 75.0 °F 59% 29.97 in 10.0 mi NNE 4.6 mph - N/A   Mostly Cloudy
2:25 PM 89.6 °F 99.8 °F 75.2 °F 62% 29.99 in 10.0 mi East 4.6 mph - N/A Thunderstorm Thunderstorm
2:48 PM 80.6 °F 86.2 °F 75.2 °F 84% 29.99 in 10.0 mi SSW 12.7 mph - N/A Thunderstorm Mostly Cloudy
2:58 PM 81.0 °F 86.2 °F 73.9 °F 79% 29.98 in 10.0 mi SSW 13.8 mph - N/A Thunderstorm Thunderstorm
3:58 PM 81.0 °F 86.2 °F 73.9 °F 79% 29.99 in 9.0 mi Calm Calm - N/A Thunderstorm Thunderstorm
4:51 PM 80.6 °F 85.4 °F 73.4 °F 79% 29.99 in 10.0 mi SSE 8.1 mph - N/A   Partly Cloudy
4:58 PM 81.0 °F 85.8 °F 73.0 °F 77% 29.99 in 10.0 mi SSE 4.6 mph - N/A   Clear
5:58 PM 78.1 °F - 73.9 °F 87% 29.99 in 10.0 mi Calm Calm - 0.00 in Rain Light Rain
6:09 PM 78.8 °F - 73.4 °F 83% 30.00 in 10.0 mi Calm Calm - 0.00 in Rain , Thunderstorm Light Thunderstorms and Rain
6:33 PM 78.8 °F - 75.2 °F 89% 30.00 in 10.0 mi Calm Calm - 0.00 in   Scattered Clouds
6:58 PM 77.0 °F - 75.0 °F 94% 29.99 in 10.0 mi ESE 3.5 mph - 0.00 in   Clear
7:58 PM 75.9 °F - 75.0 °F 97% 29.98 in 10.0 mi East 3.5 mph - N/A   Clear
8:58 PM 77.0 °F - 75.0 °F 94% 29.99 in 10.0 mi Calm Calm - N/A   Clear
9:58 PM 75.9 °F - 73.9 °F 94% 30.01 in 9.0 mi North 3.5 mph - N/A   Clear
10:58 PM 75.9 °F - 73.9 °F 94% 30.02 in 10.0 mi Calm Calm - N/A   Clear
11:58 PM 75.9 °F - 73.9 °F 94% 30.01 in 10.0 mi Calm Calm - N/A   Clear